sat.trackr.live / text

‹ back to catalog

STARLINK-1496

NORAD 45780 · 2020-038BC

PAYLOAD ACTIVE UNKNOWN

§ Identity

Operator
Country
US
Launch date
2020-06-13
Launch site
AFETR
Launch vehicle
Mass (kg)
RCS (m²)

Purposes: comms

External: N2YO · Heavens-Above · Gunter

§ Orbital elements

Epoch: 2026-05-24T08:55:19.130880Z

Period
92.29 min
Inclination
53.0448°
Eccentricity
0.0007875
Mean motion
15.60349072 rev/d
Perigee alt
381.3 km
Apogee alt
392.0 km
Semi-major
6,764.8 km
B*
8.3379e-4
RAAN
172.1119°
Arg perigee
27.1017°
Mean anomaly
333.0405°
Rev number
32,878

§ Raw data

STARLINK-14961 45780U 20038BC  26144.37174920  .00069733  00000+0  83379-3 0  99972 45780  53.0448 172.1119 0007875  27.1017 333.0405 15.60349072328780

JSON: /api/v1/satellites/45780 · /tle

For live sub-satellite position, see the globe view (requires WebGL).

§ Visibility from observer

Set your observer location to see the next 7 days of passes ≥ 10°. The values pass through the URL so the page stays shareable.

No JS? Fill the form by hand. The geolocation button needs JavaScript.